| time (UTC) | temp F | wind direction | speed knots | gust knots | rain 1hr in | rain 24hr in | rain mn in | humidity % | barometer mb |
| 20260507171243 | 57 | 135 | 1.7 | 5.2 | 0.00 | 0.00 | 0.00 | 65 | 1013.6 |
| 20260507164239 | 58 | 200 | 1.7 | 6.1 | 0.00 | 0.00 | 0.00 | 65 | 1013.6 |
| 20260507161234 | 58 | 145 | 2.6 | 7.8 | 0.00 | 0.00 | 0.00 | 63 | 1013.7 |
| 20260507154234 | 58 | 193 | 1.7 | 7.8 | 0.00 | 0.00 | 0.00 | 64 | 1013.6 |
| 20260507151230 | 58 | 180 | 0.9 | 5.2 | 0.00 | 0.00 | 0.00 | 67 | 1013.8 |
| 20260507144230 | 58 | 172 | 1.7 | 7.8 | 0.00 | 0.00 | 0.00 | 60 | 1013.9 |
| 20260507134232 | 58 | 151 | 2.6 | 6.1 | 0.00 | 0.00 | 0.00 | 60 | 1014.2 |
| 20260507131230 | 58 | 159 | 1.7 | 5.2 | 0.00 | 0.00 | 0.00 | 62 | 1014.3 |
| 20260507124232 | 59 | 147 | 1.7 | 7.8 | 0.00 | 0.00 | 0.00 | 63 | 1014.4 |
| 20260507121231 | 59 | 154 | 3.5 | 8.7 | 0.00 | 0.00 | 0.00 | 64 | 1014.5 |
| 20260507114232 | 58 | 172 | 1.7 | 7.8 | 0.00 | 0.00 | 0.00 | 70 | 1014.7 |
| 20260507111231 | 56 | 164 | 1.7 | 4.3 | 0.00 | 0.00 | 0.00 | 74 | 1015.0 |
| 20260507101231 | 51 | 259 | 0.0 | 2.6 | 0.00 | 0.00 | 0.00 | 83 | 1015.3 |
| 20260507094232 | 49 | 24 | 0.0 | 2.6 | 0.00 | 0.00 | 0.00 | 85 | 1015.4 |
| 20260507084232 | 46 | 147 | 0.0 | 0.9 | 0.00 | 0.00 | 0.00 | 90 | 1015.4 |
| 20260507081231 | 45 | 193 | 0.0 | 1.7 | 0.00 | 0.00 | 0.00 | 90 | 1015.3 |
| 20260507074232 | 44 | 66 | 0.0 | 1.7 | 0.00 | 0.00 | 0.00 | 92 | 1015.2 |
| 20260507071231 | 44 | 140 | 0.0 | 1.7 | 0.00 | 0.00 | 0.00 | 92 | 1015.2 |
| 20260507064231 | 43 | 312 | 0.0 | 0.9 | 0.00 | 0.00 | 0.00 | 93 | 1015.0 |
| 20260507054232 | 42 | 80 | 0.0 | 2.6 | 0.00 | 0.00 | 0.00 | 94 | 1014.9 |
| 20260507041232 | 42 | 1 | 0.0 | 1.7 | 0.00 | 0.00 | 0.00 | 94 | 1014.6 |
| 20260507034231 | 42 | 141 | 0.0 | 2.6 | 0.00 | 0.00 | 0.00 | 94 | 1014.5 |
| 20260507031230 | 42 | 37 | 0.0 | 2.6 | 0.00 | 0.00 | 0.00 | 94 | 1014.7 |
| 20260507024231 | 42 | 20 | 0.9 | 2.6 | 0.00 | 0.00 | 0.00 | 93 | 1014.7 |
| 20260507021231 | 42 | 37 | 0.0 | 1.7 | 0.00 | 0.00 | 0.00 | 93 | 1014.9 |
| 20260507014233 | 43 | 42 | 0.0 | 2.6 | 0.00 | 0.00 | 0.00 | 93 | 1014.9 |
| 20260507011227 | 43 | 52 | 0.0 | 1.7 | 0.00 | 0.00 | 0.00 | 92 | 1014.9 |
| 20260507001223 | 44 | 310 | 0.0 | 3.5 | 0.00 | 0.00 | 0.00 | 91 | 1014.9 |
| 20260506234216 | 44 | 97 | 0.0 | 2.6 | 0.00 | 0.00 | 0.00 | 90 | 1014.9 |
| 20260506231215 | 44 | 6 | 0.0 | 3.5 | 0.00 | 0.00 | 0.00 | 89 | 1014.8 |
| 20260506224207 | 45 | 319 | 0.0 | 1.7 | 0.00 | 0.00 | 0.00 | 88 | 1014.9 |
| 20260506211202 | 46 | 27 | 0.0 | 1.7 | 0.00 | 0.00 | 0.00 | 84 | 1014.5 |
| 20260506204202 | 46 | 31 | 0.9 | 2.6 | 0.00 | 0.00 | 0.00 | 82 | 1014.2 |
| 20260506191202 | 50 | 293 | 0.0 | 2.6 | 0.00 | 0.00 | 0.00 | 71 | 1013.4 |
| 20260506181201 | 54 | 61 | 0.9 | 4.3 | 0.00 | 0.00 | 0.00 | 61 | 1013.3 |
| 20260506174203 | 54 | 21 | 0.0 | 4.3 | 0.00 | 0.00 | 0.00 | 61 | 1013.1 |